Location: Hawks Ness
(60.2333°N, 1.1667°W)
Time: 07:06:37
(UTC+00:00)

Cosmos 1726 - Pass Details

Date: 26 January 2020
Orbit: 482 x 500 km, 82.5° (Epoch: 20 February)

Event Time Altitude Azimuth Distance (km) Brightness Sun altitude
Exits shadow 06:01:02 51° 270° (W) 626 2.1 -18.2°
Maximum altitude 06:01:19 52° 289° (WNW) 613 2.1 -18.2°
Drops below altitude 10° 06:04:55 10° 7° (N) 1,683 4.8 -17.8°
Sets 06:07:05 0° 13° (NNE) 2,567 5.8 -17.5°
